This demonstration page uses our WeatherBlox Daily Observations layout. Learn more.

Left ArrowRight Arrow

Hourly Observations for July 27, 2015

Temp ( °F °C ) Dew Point ( °F °C ) Humidity (%) Winds ( mph kmh ) Pressure ( in mb ) Visibility ( mi km ) Precip ( " mm )
12:53 am 00:53 Clear 79 26.1 44 6.7 29 29 N 12 19 29.88 1012 10 16 0.00 0.00
1:53 am 01:53 Clear 77 25 45 7.2 32 32 NNW 8 13 29.90 1012 10 16 0.00 0.00
2:53 am 02:53 Clear 76 24.4 45 7.2 33 33 N 13 20 29.88 1012 10 16 0.00 0.00
3:53 am 03:53 Clear 75 23.9 46 7.8 36 36 NNW 12 19 29.89 1012 10 16 0.00 0.00
4:53 am 04:53 Clear 74 23.3 46 7.8 37 37 NNW 14 22 29.90 1012 10 16 0.00 0.00
5:53 am 05:53 Clear 73 22.8 46 7.8 38 38 NNW 13 20 29.92 1013 10 16 0.00 0.00
6:53 am 06:53 Sunny 73 22.8 46 7.8 38 38 NNW 10 17 29.94 1014 10 16 0.00 0.00
7:53 am 07:53 Sunny 76 24.4 45 7.2 33 33 NNW 16 26 29.95 1014 10 16 0.00 0.00
8:53 am 08:53 Sunny 78 25.6 45 7.2 31 31 N 14 22 29.96 1015 10 16 0.00 0.00
9:53 am 09:53 Sunny 81 27.2 45 7.2 28 28 NNW 17 28 29.95 1014 10 16 0.00 0.00
10:53 am 10:53 Sunny 84 28.9 43 6.1 24 24 N 18 30 29.95 1014 10 16 0.00 0.00
11:53 am 11:53 Sunny 88 31.1 41 5 19 19 N 15 24 29.93 1014 10 16 0.00 0.00
12:53 pm 12:53 Sunny 92 33.3 37 2.8 14 14 N 16 26 29.91 1013 10 16 0.00 0.00
1:53 pm 13:53 Sunny 93 33.9 34 1.1 12 12 NNW 10 17 29.89 1012 10 16 0.00 0.00
2:53 pm 14:53 Sunny 96 35.6 29 -1.7 9 9 NNW 10 17 29.87 1012 10 16 0.00 0.00
3:53 pm 15:53 Sunny 97 36.1 34 1.1 11 11 N 15 24 29.85 1011 10 16 0.00 0.00
4:53 pm 16:53 Sunny 98 36.7 29 -1.7 9 9 NNW 12 19 29.84 1011 10 16 0.00 0.00
5:53 pm 17:53 Sunny 98 36.7 32 0 10 10 N 12 19 29.83 1010 10 16 0.00 0.00
6:53 pm 18:53 Sunny 96 35.6 36 2.2 12 12 N 12 19 29.83 1010 10 16 0.00 0.00
7:53 pm 19:53 Sunny 95 35 37 2.8 13 13 N 12 19 29.84 1011 10 16 0.00 0.00
8:53 pm 20:53 Clear 90 32.2 38 3.3 16 16 N 8 13 29.85 1011 10 16 0.00 0.00
9:53 pm 21:53 Clear 87 30.6 40 4.4 19 19 N 9 15 29.87 1012 10 16 0.00 0.00
10:53 pm 22:53 Clear 86 30 38 3.3 18 18 N 12 19 29.88 1012 10 16 0.00 0.00
11:53 pm 23:53 Clear 85 29.4 37 2.8 18 18 N 14 22 29.88 1012 10 16 0.00 0.00

Powered by AerisWeather